Address 0x97b709c6a46b9893c1213665664681b559b08af8 1

Overview

Balance:
4.300625159 AVAX

Token:
My Name Tag:
Not Available

Txn Hash Method
Block
From
To
Value [Txn Fee]
0x253f5754b06283d8f9078346f70efc5e7dfd796eb32807d780830125f1a9b6f70xe5ec58bc111488002022-07-01 10:47:476 mins ago0x97b709c6a46b9893c1213665664681b559b08af8OUT0xc325452c274aa4b298e1cb028c1636bc9b5db6390 AVAX0.00393495 30
0x67b31de97855520cc8d26399a9b956b3c9241169a077462128b49dff34379b2a0xe5ec58bc111485362022-07-01 10:37:4816 mins ago0x97b709c6a46b9893c1213665664681b559b08af8OUT0xc325452c274aa4b298e1cb028c1636bc9b5db6390 AVAX0.00393783 30
0x351a9999dee0e2f431a1b9a2fa4426c04b7b612367fa33fe714cea7f39c0ea700xe5ec58bc111482212022-07-01 10:25:4828 mins ago0x97b709c6a46b9893c1213665664681b559b08af8OUT0xc325452c274aa4b298e1cb028c1636bc9b5db6390 AVAX0.00393783 30
0xf13ca13ed85de9d0a0b29e4bdc515a0dd72816e09e81c75d938ed82d107cc7330xe5ec58bc111478902022-07-01 10:13:4840 mins ago0x97b709c6a46b9893c1213665664681b559b08af8OUT0xc325452c274aa4b298e1cb028c1636bc9b5db6390 AVAX0.00393819 30
0xc722d069b8d9ce54b5ef7f37639512cdc0a937882ef0476d17192b20ac21cd120xe5ec58bc111468812022-07-01 9:35:131 hr 18 mins ago0x97b709c6a46b9893c1213665664681b559b08af8OUT0xc325452c274aa4b298e1cb028c1636bc9b5db6390 AVAX0.00393711 30
0xf2daa230768a111fe5ba4e636cd09eeed53f42a2a9521e36fe322e072512c3200xe5ec58bc111465752022-07-01 9:23:131 hr 30 mins ago0x97b709c6a46b9893c1213665664681b559b08af8OUT0xc325452c274aa4b298e1cb028c1636bc9b5db6390 AVAX0.00392442 30
0xfcc1c5aa7f3f02f18ca2fa93a876d369dae995b412fa2061a3c7274710c9550b0xe5ec58bc111461432022-07-01 9:08:121 hr 45 mins ago0x97b709c6a46b9893c1213665664681b559b08af8OUT0xc325452c274aa4b298e1cb028c1636bc9b5db6390 AVAX0.00443562 30
0xd86817f7647e462a9393ec1f7745b417414c7187473081b2e3b332460b0baf4c0xe5ec58bc111440102022-07-01 7:48:223 hrs 5 mins ago0x97b709c6a46b9893c1213665664681b559b08af8OUT0xc325452c274aa4b298e1cb028c1636bc9b5db6390 AVAX0.00393855 30
0xd9b794d626bfcd99ca50824004f4af019d37d4120f11fa1b0a6469cdfa261ab60xe5ec58bc111437162022-07-01 7:37:453 hrs 16 mins ago0x97b709c6a46b9893c1213665664681b559b08af8OUT0xc325452c274aa4b298e1cb028c1636bc9b5db6390 AVAX0.00393747 30
0x3ff2d8aac60aab10a2a5fb62d9fe5b2c1fa1f651c553b3741b3b7ef5555e566a0xe5ec58bc111433802022-07-01 7:25:353 hrs 28 mins ago0x97b709c6a46b9893c1213665664681b559b08af8OUT0xc325452c274aa4b298e1cb028c1636bc9b5db6390 AVAX0.00392442 30
0x670a59f85d482c9dc3984f001661bb03479dc6d388563efbdb49ac13ec1a7db80xe5ec58bc111430692022-07-01 7:13:423 hrs 40 mins ago0x97b709c6a46b9893c1213665664681b559b08af8OUT0xc325452c274aa4b298e1cb028c1636bc9b5db6390 AVAX0.00393819 30
0x2f451b3841e5d682a0f9e23f1eb9180e108461cc81e2f8524a1735d75ad0974e0xe5ec58bc111427932022-07-01 7:03:223 hrs 50 mins ago0x97b709c6a46b9893c1213665664681b559b08af8OUT0xc325452c274aa4b298e1cb028c1636bc9b5db6390 AVAX0.00393783 30
0xc2fed48e3a8c2934a4c1fca627e8cfca9b01ad3dbec0df8e86d640063b12e3f20xe5ec58bc111425282022-07-01 6:53:234 hrs ago0x97b709c6a46b9893c1213665664681b559b08af8OUT0xc325452c274aa4b298e1cb028c1636bc9b5db6390 AVAX0.00393783 30
0x8e86096db01de1d61dd0a8541b76643198b415ae793af4e12a1a2ba6547c03170xe5ec58bc111421712022-07-01 6:39:304 hrs 14 mins ago0x97b709c6a46b9893c1213665664681b559b08af8OUT0xc325452c274aa4b298e1cb028c1636bc9b5db6390 AVAX0.00342483 30
0x484e9bd17b86e31f0cfbcb1da7906e20f43b240023ce034ea63daeca846aa7c80xe5ec58bc111419432022-07-01 6:30:284 hrs 23 mins ago0x97b709c6a46b9893c1213665664681b559b08af8OUT0xc325452c274aa4b298e1cb028c1636bc9b5db6390 AVAX0.0039237 30
0x2c4e8b975016ee11e0a8d94227a4953c020b1387827c457a05a927be80f9e2760xe5ec58bc111416732022-07-01 6:19:384 hrs 34 mins ago0x97b709c6a46b9893c1213665664681b559b08af8OUT0xc325452c274aa4b298e1cb028c1636bc9b5db6390 AVAX0.00393855 30
0x7a9a867a4eef465569cce8129512b861de9115064c0d2fdc2de222a066892cb70xe5ec58bc111414252022-07-01 6:09:334 hrs 44 mins ago0x97b709c6a46b9893c1213665664681b559b08af8OUT0xc325452c274aa4b298e1cb028c1636bc9b5db6390 AVAX0.00392226 30
0xc2a5ccca76e3ffbb65e9dba18562da9445594bfec38457c1867710605f0af7660xe5ec58bc111411482022-07-01 5:57:424 hrs 56 mins ago0x97b709c6a46b9893c1213665664681b559b08af8OUT0xc325452c274aa4b298e1cb028c1636bc9b5db6390 AVAX0.0039237 30
0x855bf84e0ed82d47b85f8f644069ee29a4ae0c28f3bc9616654ed31309c9571f0xe5ec58bc111409292022-07-01 5:48:235 hrs 5 mins ago0x97b709c6a46b9893c1213665664681b559b08af8OUT0xc325452c274aa4b298e1cb028c1636bc9b5db6390 AVAX0.00443634 30
0xbd493b29ce7999d1b5aa20a4e6b0b95e0eaa46dd5c449ce56bcab1e1cbe80fa50xe5ec58bc111406382022-07-01 5:36:225 hrs 17 mins ago0x97b709c6a46b9893c1213665664681b559b08af8OUT0xc325452c274aa4b298e1cb028c1636bc9b5db6390 AVAX0.00443706 30
0xd46d6eeb4f05997ff1c68461f4e12d65e75156ef5305063333bda92bd3cc1ae80xe5ec58bc111403812022-07-01 5:24:345 hrs 29 mins ago0x97b709c6a46b9893c1213665664681b559b08af8OUT0xc325452c274aa4b298e1cb028c1636bc9b5db6390 AVAX0.00392442 30
0xf85e30a95f661dc8d0f9b00f814adec47fbcc87a54d751c33097c496eaf674050xe5ec58bc111401212022-07-01 5:12:245 hrs 41 mins ago0x97b709c6a46b9893c1213665664681b559b08af8OUT0xc325452c274aa4b298e1cb028c1636bc9b5db6390 AVAX0.00392442 30
0xee2a72c1a016efbee4cb22419ccc0dd122fd52b777b51aa6e8dff471200ac2070xe5ec58bc111400762022-07-01 5:10:245 hrs 43 mins ago0x97b709c6a46b9893c1213665664681b559b08af8OUT0xc325452c274aa4b298e1cb028c1636bc9b5db6390 AVAX0.00443598 30
0xdbbfcf29e2b50a8f793a6068180432cb8f0076889711847388e21905b5b274530xe5ec58bc111398602022-07-01 5:00:245 hrs 53 mins ago0x97b709c6a46b9893c1213665664681b559b08af8OUT0xc325452c274aa4b298e1cb028c1636bc9b5db6390 AVAX0.00393783 30
0x062ca4a408c24c9f8777b68283383f6d04e702f2370d36d355ec8648411aae700xe5ec58bc111396182022-07-01 4:50:356 hrs 3 mins ago0x97b709c6a46b9893c1213665664681b559b08af8OUT0xc325452c274aa4b298e1cb028c1636bc9b5db6390 AVAX0.00342447 30
[ Download CSV Export 
Parent Txn Hash Block From To Value
Loading

Contract Name:
0

Compiler Version
0

Optimization Enabled:
0

Other Settings:
-NA-
Block Transaction Gas Used Reward
Age Block Fee Address BC Fee Address Voting Power Jailed Incoming
Block Uncle Number Difficulty Gas Used Reward
Loading